Zurück zum Katalog

STARLINK-34358

AktivKommunikationVLEO
NORAD 64313·PAYLOAD·🇺🇸 United States

Gestartet Jun 8, 2025 von Vandenberg Space Force Base

Loading…

Nächste Überflüge (nächste 24 Stunden)

TLE

AktuellSource: CelesTrak SupGP

Epoche: Sep 15, 2026, 03:06 UTC

1 64313C 25123Y   26258.12965278 -.00052905  00000+0 -18400-2 0  2588
2 64313  69.9998  75.3237 0003046 276.6238  29.7289 15.29612785    17

Verfolge STARLINK-34358 in Echtzeit mit AllMySat

Download on the App Store